Regional Weather Roundup
Issued by NWS

Home | Current Version | Previous Version | Text Only | Print | Product List | Glossary On
Versions: 1 2 3 4 5 6 7 8 9 10 11 12 13 14 15 16 17 18 19 20 21 22 23 24 25 26 27 28 29 30 31 32 33 34 35 36 37 38 39 40 41 42 43 44 45 46 47 48 49 50
000
ASUS44 KFWD 240715
RWRTX
NORTH TEXAS HOURLY WEATHER ROUNDUP
NATIONAL WEATHER SERVICE FORT WORTH TX
200 AM CDT WED MAY 24 2017

NOTE: "FAIR" INDICATES FEW OR NO CLOUDS BELOW 12,000 FEET WITH NO
SIGNIFICANT WEATHER AND/OR OBSTRUCTIONS TO VISIBILITY.

TXZ118-119-240800-
DALLAS/FORT WORTH METROPLEX

CITY           SKY/WX    TMP DP  RH WIND       PRES   REMARKS
DFW AIRPORT    CLEAR     63  51  65 W12       29.83F
DALLAS LOVE    CLEAR     58  52  80 CALM      29.85F
FTW MEACHAM    CLEAR     59  53  80 NW9       29.86F
DAL-EXECUTIVE  CLEAR     57  52  83 W7        29.85F
FTW-ALLIANCE   CLEAR     57  51  80 W7        29.86F
FTW-NAS-JRB    CLEAR     59  53  80 NW8       29.87F
FTW-SPINKS     CLEAR     55  51  85 W8        29.88F
ARLINGTON      CLEAR     56  51  84 W7        29.86F
GRAND PRAIRIE  CLEAR     59  51  73 SW5       29.87F
ADDISON        CLEAR     59  51  75 W3        29.87F
MESQUITE       CLEAR     58  52  79 W5        29.84F
LANCASTER      CLEAR     55  50  86 W5        29.86F
$$

TXZ091>094-102>105-117-120-121-131>134-240800-
NORTH CENTRAL TEXAS

CITY           SKY/WX    TMP DP  RH WIND       PRES   REMARKS
SHRMAN/DENISON CLEAR     53  50  89 CALM      29.86F
GAINESVILLE    CLEAR     52  47  83 NW3       29.88F
BOWIE          CLEAR     54  48  80 NW6       29.88F
BRIDGEPORT     CLEAR     52  49  90 SW3       29.91S
DECATUR        CLEAR     55  50  85 W7        29.88F
DENTON         CLEAR     52  51  97 W6        29.86F
MCKINNEY       CLEAR     57  53  86 W8        29.84F
BONHAM         CLEAR     54  50  87 W7        29.84F
GREENVILLE     CLEAR     59  54  82 W6        29.84F
ROCKWALL       CLEAR     59  52  76 NW5       29.85F
TERRELL        CLEAR     54  50  86 W7        29.84F
WAXAHACHIE     CLEAR     55  52  89 W7        29.88F
CLEBURNE       CLEAR     54  54 100 W7        29.90F
GRANBURY       CLEAR     53  51  91 CALM      29.91F
$$

TXZ083>090-098>101-113>116-127>130-139>142-154-155-240800-
WESTERN NORTH TEXAS

CITY           SKY/WX    TMP DP  RH WIND       PRES   REMARKS
WICHITA FALLS  PTCLDY    56  45  66 NW10      29.90F
WF-KICKAPOO    PTCLDY    56  47  71 NW6       29.93S
VERNON         MOCLDY    55  44  66 W6        29.94S
ABILENE        CLEAR     52  49  89 CALM      29.97S
ABILENE-DYESS  CLEAR     55  47  74 W9        29.95F
GRAHAM           N/A     48  32  53 CALM      29.90F
BRECKENRIDGE   CLEAR     53  51  93 SW5       29.93F
CISCO          CLEAR     54  50  87 W9        29.95F
EASTLAND       CLEAR     47  47  99 CALM      29.94F
RANGER         CLEAR     52  49  90 W7        29.94S
MINERAL WELLS  CLEAR     51  49  92 W5        29.89F
STEPHENVILLE   CLEAR     56  49  76 W6        29.95S
COMANCHE       CLEAR     56  50  80 MISG      29.95S
BROWNWOOD      PTCLDY    48  48 100 CALM      29.95F
COLEMAN        CLEAR     52  46  80 W6        29.96S
$$

TXZ143>147-156>162-174-175-240800-
CENTRAL TEXAS

CITY           SKY/WX    TMP DP  RH WIND       PRES   REMARKS
WACO           CLEAR     53  52  96 NW7       29.88F
WACO-MCGREGOR  CLEAR     54  51  90 W7        29.90F
HILLSBORO      CLEAR     52  51  96 CALM      29.88F
CORSICANA      PTCLDY    55  53  93 W6        29.87F
MEXIA          CLEAR     55  52  89 W6        29.86F
HEARNE         PTCLDY    55  55 100 W5        29.91F
CAMERON        CLEAR     57  53  85 W6        29.91F
TEMPLE         CLEAR     55  52  89 W7        29.92F
KILLEEN        CLEAR     57  49  77 CALM      29.91F
KILLEEN-SKYLRK CLEAR     54  50  86 W6        29.93F
FORT HOOD      CLEAR     55  50  83 W6        29.89F
HAMILTON       CLEAR     55  49  82 W8        29.94F
LAMPASAS       CLEAR     55  52  88 CALM      29.92F
$$

TXZ095>097-106>112-122>126-135>138-148>153-164>167-240800-
EAST TEXAS

CITY           SKY/WX    TMP DP  RH WIND       PRES   REMARKS
PARIS          CLEAR     57  52  82 NW10      29.82F
SULPHUR SPRNGS CLEAR     58  53  85 W7        29.84F
MOUNT PLEASANT CLEAR     58  55  87 W8        29.82F
GILMER         CLEAR     57  55  92 CALM      29.81F
MINEOLA        CLEAR     59  54  82 CALM      29.82F
TYLER          CLEAR     57  55  93 W5        29.82F
LONGVIEW       CLEAR     58  58 100 W3        29.81F
MARSHALL       CLEAR     57  55  91 NW5       29.83F
ATHENS         PTCLDY    54  54 100 CALM      29.83F
PALESTINE      CLEAR     56  55  99 CALM      29.87F
JACKSONVILLE   CLEAR     57  56  97 CALM      29.86F
HENDERSON      CLEAR    N/A N/A N/A CALM      29.84F
CENTER         SUNNY     63  62  96 NW5       29.83F
NACOGDOCHES    CLEAR     57  55  94 NW7       29.82F
LUFKIN         PTCLDY    59  58  96 W6        29.83F
$$

SUPPLEMENTAL OBSERVATIONS (NWS FORT WORTH AREA)

CITY           SKY/WX    TMP DP  RH WIND       PRES   REMARKS
DENISON DAM      N/A     63  50  63 NW17        N/A
CADDO GRASSLND   N/A     55  52  88 N2          N/A
PAT MAYSE LAKE   N/A     55  54  94 NW2         N/A
GREENVILLE       N/A     54  48  82 W5          N/A
CEDAR HILL       N/A     55  50  82 S2          N/A
LBJ GRASSLAND    N/A     52  48  87 W1          N/A
POSSUM KINGDOM   N/A     54  50  87 W5          N/A
GRANBURY         N/A     52  48  87 NW1         N/A
COMANCHE         N/A     55  48  76 W12         N/A
MCGREGOR         N/A     54  50  87 SW2         N/A
TEMPLE           N/A     55  50  82 W6          N/A
LAKE LIMESTONE   N/A     55  52  88 W5          N/A
ATHENS           N/A     55  52  88 W1          N/A
$$

SUPPLEMENTAL OBSERVATIONS (NWS NORMAN AREA)

CITY           SKY/WX    TMP DP  RH WIND       PRES   REMARKS
GOODLETT         N/A     51  42  69 W12       29.95F
ODELL            N/A     49  46  88 W3        29.95S
CROWELL          N/A     57  43  60 NW9       29.95F
KNOX CITY        N/A     51  46  84 SW7       29.96F
SEYMOUR          N/A     51  47  86 W6        29.94F
MILLERS CREEK    N/A     54  48  82 SW5         N/A
$$

SUPPLEMENTAL OBSERVATIONS (NWS SAN ANGELO AREA)

CITY           SKY/WX    TMP DP  RH WIND       PRES   REMARKS
WEINERT          N/A     52  47  84 SW6       29.95F
THROCKMORTON     N/A     55  51  88 SW9       29.94F
STAMFORD         N/A     55  52  88 W10       29.96F
CLYDE            N/A     52  47  82 W5        29.97F
HAMBY            N/A     48  45  87 S2          N/A
IVIE RESERVOIR   N/A     54  48  82 NW3         N/A
COLORADO BEND    N/A     52  46  82 N1          N/A
$$

SUPPLEMENTAL OBSERVATIONS (NWS SHREVEPORT AREA)

CITY           SKY/WX    TMP DP  RH WIND       PRES   REMARKS
CLARKSVILLE      N/A     55  52  88 NW1         N/A
TEXARKANA        N/A     57  55  94 W1          N/A
LINDEN           N/A     57  54  88 W3          N/A
CADDO LAKE       N/A     55  54  94 CALM        N/A
GILMER           N/A     57  54  88 W2          N/A
HENDERSON        N/A     57  55  94 SW3         N/A
LUFKIN           N/A     61  57  88 MISG        N/A
N SABINE NF      N/A     61  59  94 MISG        N/A
S SABINE NF      N/A     61  57  88 NW2         N/A
$$

SUPPLEMENTAL OBSERVATIONS ARE A COLLECTION OF AUTOMATED INSTRUMENTS
THAT ARE MAINTAINED BY A VARIETY OF FEDERAL AND STATE AGENCIES.
CERTAIN ELEMENTS...SUCH AS HUMIDITY VALUES AND SUSTAINED WIND
SPEEDS...MAY BE APPROXIMATED.





USA.gov is the U.S. government's official web portal to all federal, state and local government web resources and services.